#timestamp,LO_Frequency,Hit 
1499864415.8,286046999.1,N
1499864435.6,286046996.9,N
1499864455.5,286046998.0,N
1499864475.3,286046995.4,N
1499864495.1,286046997.8,N
1499864515.9,286046996.5,N
1499864535.7,286046997.2,N
1499864555.6,286046997.2,N
1499864575.4,286046996.5,N
1499864595.2,286046999.5,N
1499864615.1,286046996.6,N
1499864616.0,286046996.6,N
1499864635.8,286046997.5,N
1499864655.7,286046997.4,N
1499864675.5,286046996.5,N
1499864695.3,286046999.4,N
1499864715.2,286046996.9,N
1499864735.0,286046999.4,N
1499864735.9,286046999.4,N
1499864755.8,286046999.6,N
1499864775.6,286046998.1,N
1499864795.4,286046998.8,N
1499864815.3,286046999.4,N
1499864835.1,286046999.3,N
1499864855.8,286046998.3,N
1499864875.7,286046996.5,N
1499864895.5,286046997.2,N
1499864915.4,286046999.6,N
1499864935.2,286046996.5,N
1499864955.0,286046999.0,N
1499864955.9,286046999.0,N
1499864975.8,286046999.3,N
1499864995.6,286046999.0,N
1499865015.5,286046999.4,N
1499865035.3,286046999.1,N
1499865055.1,286046999.0,N
1499865075.9,286046998.3,N
1499865095.7,286046998.6,N
1499865115.5,286046998.2,N
1499865135.4,286046999.1,N
1499865155.2,286046999.3,N
1499865175.1,286046999.5,N
1499865176.0,286046999.5,N
1499865195.8,286046999.4,N
1499865215.6,286046999.1,N
1499865235.5,286046999.3,N
1499865255.3,286046998.2,N
1499865275.2,286046999.6,N
1499865295.9,286046996.6,N
1499865315.7,286046997.0,N
1499865335.6,286046999.0,N
1499865355.4,286046999.0,N
1499865375.3,286046999.5,N
1499865395.1,286046998.9,N
1499865396.0,286046998.9,N
1499865415.8,286046999.4,N
1499865435.7,286046998.3,N
1499865455.5,286046998.8,N
1499865475.3,286046996.5,N
1499865495.2,286046996.6,N
1499865515.0,286046998.9,N
1499865515.9,286046998.9,N
1499865535.8,286046998.5,N
1499865555.6,286047001.0,N
1499865575.4,286047002.3,N
1499865595.3,286047002.7,N
1499865615.1,286046999.7,N
1499865635.9,286047000.4,N
1499865655.7,286047000.0,N
1499865675.5,286047000.4,N
1499865695.4,286046999.7,N
1499865715.2,286046999.8,N
1499865735.0,286047001.1,N
1499865735.9,286047001.1,N
1499865755.8,286046999.0,N
1499865775.6,286047000.8,N
1499865795.5,286047001.1,N
1499865815.3,286046999.2,N
1499865835.1,286046998.5,N
1499865855.9,286046998.2,N
1499865875.7,286047001.0,N
1499865895.5,286046999.9,N
1499865915.4,286047002.7,N
1499865935.2,286047000.2,N
1499865955.1,286047000.1,N
1499865956.0,286047000.1,N
1499865975.8,286047000.2,N
1499865995.6,286047001.0,N
1499866015.5,286046998.5,N
1499866035.3,286047001.2,N
1499866055.2,286047000.7,N
1499866075.9,286046998.1,N
1499866095.7,286046998.5,N
1499866115.6,286047000.5,N
1499866135.4,286047002.8,N
1499866155.3,286047000.5,N
1499866175.1,286047000.7,N
1499866176.0,286047000.7,N
1499866195.8,286047000.0,N
1499866215.7,286047002.7,N
1499866235.5,286046999.7,N
1499866255.3,286046999.8,N
1499866275.2,286047000.7,N
1499866295.0,286046998.5,N
1499866295.9,286046998.5,N
1499866315.8,286046998.6,N
1499866335.6,286046998.5,N
1499866355.4,286047002.1,N
1499866375.3,286047002.2,N
1499866395.1,286047002.2,N
1499866415.9,286047001.7,N
1499866435.7,286047002.0,N
1499866455.5,286047002.6,N
1499866475.4,286047002.6,N
1499866495.2,286047002.3,N
1499866515.0,286047002.6,N
1499866516.0,286047002.6,N
1499866535.8,286047002.6,N
1499866555.6,286047002.0,N
1499866575.5,286047002.2,N
1499866595.3,286047001.9,N
1499866615.1,286047002.8,N
1499866635.9,286047000.9,N
1499866655.7,286047001.1,N
1499866675.6,286047000.6,N
1499866695.4,286047002.4,N
1499866715.2,286047002.3,N
1499866735.1,286047002.6,N
1499866736.0,286047002.6,N
1499866755.8,286047002.3,N
1499866775.7,286047002.2,N
1499866795.5,286047002.4,N
1499866815.3,286047001.5,N
1499866835.2,286047001.4,N
1499866855.0,286047001.4,N
1499866855.9,286047001.4,N
1499866875.8,286047000.3,N
1499866895.6,286046999.8,N
1499866915.5,286047000.8,N
1499866935.3,286046998.5,N
1499866955.1,286047000.7,N
1499866975.9,286047000.7,N
1499866995.7,286047000.6,N
1499867015.6,286046999.7,N
1499867035.4,286047002.5,N
1499867055.2,286047002.8,N
1499867075.1,286047000.3,N
1499867076.0,286047000.3,N
1499867095.8,286047000.5,N
1499867115.6,286047002.7,N
1499867135.5,286047000.5,N
1499867155.3,286047001.0,N
1499867175.2,286046998.5,N
1499867195.9,286047000.7,N
1499867215.7,286047000.6,N
1499867235.6,286047000.1,N
1499867255.4,286047002.4,N
1499867275.2,286047002.5,N
1499867295.1,286047000.3,N
1499867296.0,286047000.3,N
1499867315.8,286047000.9,N
1499867335.7,286047000.6,N
1499867355.5,286047000.9,N
1499867375.3,286046999.3,N
1499867395.2,286046999.2,N
1499867415.0,286046996.5,N
1499867415.9,286046996.5,N
1499867435.8,286046998.7,N
1499867455.6,286047001.2,N
1499867475.4,286047001.0,N
1499867495.3,286046999.5,N
1499867515.1,286046999.4,N
1499867535.9,286046996.7,N
1499867555.7,286046996.5,N
1499867575.5,286046999.3,N
1499867595.4,286046998.4,N
1499867615.2,286046999.4,N
1499867635.0,286046996.9,N
1499867635.9,286046996.9,N
1499867655.8,286046997.0,N
1499867675.6,286046997.0,N
1499867695.5,286046998.2,N
1499867715.3,286046999.7,N
1499867735.1,286046998.1,N
1499867755.9,286046998.2,N
1499867775.7,286046998.9,N
1499867795.5,286046999.4,N
1499867815.4,286046996.6,N
1499867835.2,286046999.3,N
1499867855.1,286047001.2,N
1499867856.0,286047001.2,N
1499867875.8,286046998.2,N
1499867895.6,286046998.3,N
1499867915.5,286046998.5,N
1499867935.3,286046997.0,N
1499867955.1,286046997.4,N
1499867975.9,286046997.0,N
1499867995.7,286046996.9,N
